FENGYUN 1C DEB

Satellite information

Favourite Embed

Satellite Type and Status

DEBRISIN ORBIT

Key statistics

Satellite FENGYUN 1C DEB at a glance.

Uptime

9495

Days in orbit

Revolutions

≈ 14.3

Per day

Orbit

SSO

Sun Synchronous Orbit

Inclination

99.0

Latest

Satellite identification and parameters

Extended collection of information and parameters for FENGYUN 1C DEB.

Object identification

Identified? True

Debris? True

Object name: FENGYUN 1C DEB

International designator: 1999-025BHR

Object number (NORAD): 31163

Object ID (CCSDS): 31163

Country: PEOPLES REPUBLIC OF CHINA (PRC)

Current information (Y/N): Y

RCS size: SMALL

Orbital parameters

Period: 100.604 minutes

Inclination: 99.0082 deg

SMA: 7165.322 km

Apoapsis: 826.249 km

Periapsis: 748.124 km

RAAN: 346.1535 deg

Eccentricy: 0.0054516

Argument of periapsis: 173.4697 deg

Mean anomaly: 186.7207 deg

Mean motion: 14.31361103 rev/day

Mean motion (dot): 0.00001651 rev/day2

B* drag term: 0.00063054 1/REarth

Two-line elements (TLE)

Creation date: May 7, 2025, 3:14 a.m.

Reference frame: TEME

Reference center: EARTH

Epoch: May 6, 2025, 9:55 a.m. UTC

TLE line 0: 0 FENGYUN 1C DEB

TLE line 1: 1 31163U 99025BHR 25126.41387940 .00001651 00000-0 63054-3 0 9995

TLE line 2: 2 31163 99.0082 346.1535 0054516 173.4697 186.7207 14.31361103615892

Live tracking on map

Real-time ground track for satellite FENGYUN 1C DEB.

In-orbit conjunctions

A list of the most updated potential collisions computed for object FENGYUN 1C DEB.

Target Orbit TCA Probability of collision Miss distance Type
SL-8 R/B LEO 2025-02-10 00:00:49 0.0001089698 402.0 (m) ROCKET BODY
CZ-6A DEB LEO 2024-12-16 15:26:19 0.000262365 224.0 (m) DEBRIS
CZ-6A DEB LEO 2024-12-07 05:39:30 0.0001050145 198.0 (m) DEBRIS
CZ-6A DEB SSO 2024-09-25 15:30:00 0.0005006523 249.0 (m) DEBRIS

Associated space launch

Chinese polar orbiting meteorological satellite

FENGYUN 1C DEB was lifted into orbit during the mission ‘Long March 4B | Feng Yun 1C’, on board a Long March 4B space rocket.

The launch took place on May 10, 1999, 1:33 a.m. from Launch Complex 7.

For more information about the launch, click the button.

Launch to space Long March 4B | Feng Yun 1C
Long March 4B | Feng Yun 1C

Agency: N/A

Status: Launch Successful

Launch date: May 10, 1999, 1:33 a.m. UTC

Rocket: Long March 4B

Launch pad: Launch Complex 7

Location: Taiyuan Satellite Launch Center, People's Republic of China

...

Latest news about this satellite

There are no fresh news available about this satellite. Check back as we update our databases every day.


Newsletter sign-up

Weekly statistics, charts and insights to help you stay on top of the space industry.